User: anonymous   Login
Location: Wharf Road Observatory
(44.7802°N, 65.6070°W)
Time: 08:21:01
(UTC-04:00)
Language:

CAS-4A - Orbit

View from above orbital plane
View from above orbital plane
View from above satellite
View from above satellite

Ground track
Ground track

The orbit data is extracted from the following two-line orbital elements,

1 42761U 17034D   24065.12378931  .00011965  00000-0  49024-3 0  9990
2 42761  43.0106  91.2585 0010821  15.6321 344.4862 15.24204461371513
Epoch (UTC): 05 March 2024 02:58:15
Eccentricity: 0.0010821
inclination: 43.0106°
perigee height: 486 km
apogee height: 500 km
right ascension of ascending node: 91.2585°
argument of perigee: 15.6321°
revolutions per day: 15.24204461
mean anomaly at epoch: 344.4862°
orbit number at epoch: 37151

The dashed part of the orbit path shows where the satellite is in the earth's shadow,  

DLR